Погода в Брыкине Боре

Россия / Рязанская область     54°42′29″N   40°51′26″E
темп.,
°C
ветер,
м/с
пор.,
м/с
влажн.,
%
обл.,
%
осадки,
мм/ч
давл.,
гПа
погр.,
м
3 августа, вт
вт300:00+23ю3105775 0.0 1005173
03:00+18ююз128846 0.0 100722
06:00+19юз2683100 0.1 1007167
09:00+19ююз2596100 1.8 1009254
12:00+26зюз345810 0.1 10091225
15:00+25зюз4558100 1.3 10091346
18:00+24з465663 0.1 10081178
21:00+20зсз26680 0.1 1010157
4 августа, ср
ср400:00+18сз2668100 0.0 1012142
03:00+15зсз257962 0.0 101392
06:00+15сз257215 0.0 1014144
09:00+22сз34480 0.0 1014693
12:00+25з343690 0.0 10142767
15:00+20сз4754100 0.0 1015397
18:00+22зсз12475 0.0 1015591
21:00+18зюз235797 0.0 101660
5 августа, чт
чт500:00+16сз247030 0.0 101781
03:00+14зсз227620 0.0 101718
06:00+15зсз117956 0.0 101834
09:00+22зсз1154100 0.0 1018575
12:00+25з234030 0.0 10171898
15:00+26зюз3333100 0.0 10172567
18:00+23зюз235138 0.0 1016120
21:00+18ссв1162100 0.0 101611
6 августа, пт
пт600:00+19в225862 0.0 101632
03:00+17ююв2459100 0.0 1015100
06:00+17юв2959100 0.0 1015280
09:00+20ююв41250100 0.0 1014548
12:00+27ююз573577 0.0 10131521
15:00+26ю373986 0.0 1011393
18:00+26ююв2344100 0.0 101087
21:00+22ююв2114922 0.0 1011304
7 августа, сб
сб700:00+21ююв3145350 0.0 1011348
03:00+21ю31452100 0.0 1011370
06:00+19юв2106154 0.0 1011249
09:00+26ю363829 0.0 1011585
12:00+31ю352897 0.0 10101134
15:00+33ю5725100 0.0 10092154
18:00+27юз71345100 0.0 1010691
21:00+20вюв2277100 0.3 101121